Location: Enborne
(51.3833°N, 1.3667°W)
Time: 17:39:37
(UTC+00:00)

SL-14 R/B - Visible Passes

Search period start: 16 January 2021 00:00
Search period end: 26 January 2021 00:00
Orbit: 518 x 554 km, 82.4° (Epoch: 15 January)

Date Brightness Start Highest point End Pass type
(mag) Time Alt. Az. Time Alt. Az. Time Alt. Az.
16 Jan 5.9 05:21:08 11° S 05:21:08 11° S 05:21:19 10° S visible
16 Jan 3.8 17:36:46 10° SSE 17:40:18 35° E 17:43:53 10° NNE visible
16 Jan 5.5 19:13:26 10° WSW 19:16:34 23° WNW 19:19:45 10° NNW visible
17 Jan 3.9 17:28:09 10° SSE 17:31:40 34° E 17:35:14 10° NNE visible
17 Jan 5.5 19:04:44 10° WSW 19:07:55 24° WNW 19:11:08 10° NNW visible
18 Jan 3.9 17:19:30 10° SSE 17:23:01 34° E 17:26:35 10° NNE visible
18 Jan 5.5 18:56:04 10° SW 18:59:16 24° WNW 19:02:31 10° NNW visible
19 Jan 4.0 17:10:53 10° SSE 17:14:22 33° E 17:17:56 10° NNE visible
19 Jan 5.5 18:47:23 10° SW 18:50:37 25° WNW 18:53:53 10° NNW visible
20 Jan 5.5 18:38:42 10° SW 18:41:57 25° WNW 18:45:16 10° NNW visible
21 Jan 5.5 18:30:02 10° SW 18:33:18 25° WNW 18:36:38 10° NNW visible
22 Jan 5.4 18:21:21 10° SW 18:24:39 26° WNW 18:28:01 10° N visible
23 Jan 5.4 18:12:41 10° SW 18:16:01 26° WNW 18:19:24 10° N visible
24 Jan 5.4 18:04:00 10° SW 18:07:21 27° WNW 18:10:46 10° N visible
25 Jan 5.4 17:55:20 10° SW 17:58:42 27° WNW 18:02:08 10° N visible
